This is the latest recevied weather packets stored in our database for station/object WB3EGK. If no packets are shown the sender has not sent any weather packets the latest 10 day(s).
| Time | Temp. | Humidity | Pressure | Rain* | Wind** | Luminosity | Snow |
|---|---|---|---|---|---|---|---|
| 1778090055 | 10.56° C | 1% | 1008.4 hPa | 0 mm | - | 270 W/m² | - |
| 1778089751 | 10.56° C | 1% | 1008.4 hPa | 0 mm | - | 267 W/m² | - |
| 1778089449 | 10.56° C | 1% | 1008.4 hPa | 0 mm | - | 388 W/m² | - |
| 1778089146 | 10.56° C | 1% | 1008.5 hPa | 0 mm | - | 242 W/m² | - |
| 1778088843 | 10° C | 1% | 1008.3 hPa | 0 mm | - | 445 W/m² | - |
| 1778088540 | 10° C | 1% | 1008.1 hPa | 0 mm | - | 168 W/m² | - |
| 1778088236 | 10° C | 1% | 1008.2 hPa | 0 mm | - | 225 W/m² | - |
| 1778087934 | 10° C | 1% | 1008.5 hPa | 0 mm | - | 278 W/m² | - |
| 1778087631 | 10° C | 1% | 1008.2 hPa | 0 mm | - | 237 W/m² | - |
| 1778087328 | 10.56° C | 1% | 1008.3 hPa | 0 mm | - | 899 W/m² | - |
| 1778087024 | 10.56° C | 1% | 1008 hPa | 0 mm | - | 915 W/m² | - |
| 1778086718 | 10° C | 1% | 1008.2 hPa | 0 mm | - | 671 W/m² | - |
| 1778086415 | 10° C | 1% | 1008.3 hPa | 0 mm | - | 583 W/m² | - |
| 1778086111 | 10° C | 1% | 1008.3 hPa | 0 mm | - | 243 W/m² | - |
| 1778085808 | 10° C | 1% | 1008.3 hPa | 0 mm | - | 665 W/m² | - |
| 1778085500 | 9.44° C | 1% | 1008.1 hPa | 0 mm | - | 531 W/m² | - |
| 1778085200 | 9.44° C | 1% | 1007.9 hPa | 0 mm | - | 740 W/m² | - |
| 1778084896 | 8.89° C | 1% | 1007.9 hPa | 0 mm | - | 914 W/m² | - |
| 1778084594 | 8.89° C | 1% | 1008.1 hPa | 0 mm | - | 347 W/m² | - |
| 1778084291 | 8.89° C | 1% | 1008 hPa | 0 mm | - | 108 W/m² | - |
| 1778083989 | 8.89° C | 1% | 1008 hPa | 0 mm | - | 68 W/m² | - |
| 1778083686 | 8.33° C | 1% | 1007.7 hPa | 0 mm | - | 70 W/m² | - |
| 1778083383 | 8.33° C | 1% | 1007.8 hPa | 0 mm | - | 66 W/m² | - |
| 1778083082 | 8.89° C | 1% | 1007.6 hPa | 0 mm | - | 105 W/m² | - |
| 1778082778 | 8.33° C | 1% | 1007.6 hPa | 0 mm | - | 161 W/m² | - |
* Rain latest hour (hover to see other rain measurements)
** Current wind speed in m/s (hover to see current wind gust speed)